Location: Bavegemberg
(50.9500°N, 3.8833°E)
Time: 10:15:31
(UTC+00:00)

Cosmos 1697 Rocket - Pass Details

Date: 23 May 2024
Orbit: 833 x 842 km, 71.0° (Epoch: 14 June)

Event Time Altitude Azimuth Distance (km) Brightness Sun altitude
Rises 00:57:26 0° 319° (NW) 3,399 6.3 -16.5°
Reaches altitude 10° 01:00:37 10° 302° (WNW) 2,457 5.3 -16.3°
Maximum altitude 01:04:16 18° 261° (W) 1,947 4.3 -16.1°
Enters shadow 01:05:46 16° 241° (WSW) 2,040 4.3 -16.0°
